Time,TemperatureF,DewpointF,PressureIn,WindDirection,WindDirectionDegrees,WindSpeedMPH,WindSpeedGustMPH,Humidity,HourlyPrecipIn,Conditions,Clouds,dailyrainin,SoftwareType,DateUTC
2013-01-06 00:00:00,34.6,0.0,29.92,SSW,207,0.0,7.2,0,0.00,,---,0.00,VWS V14.00,2013-01-06 05:00:00,
2013-01-06 00:01:00,34.7,0.0,29.92,SW,219,0.0,7.2,0,0.00,,---,0.00,VWS V14.00,2013-01-06 05:01:00,
2013-01-06 00:02:00,23.7,0.0,30.21,North,1,0.0,0.0,0,0.00,,---,0.00,VWS V14.00,2013-01-06 05:02:00,
2013-01-06 00:03:00,34.8,0.0,29.92,WSW,243,0.0,7.2,0,0.00,,---,0.00,VWS V14.00,2013-01-06 05:03:00,
2013-01-06 00:04:00,34.8,0.0,29.92,SSW,212,6.1,7.2,0,0.00,,---,0.00,VWS V14.00,2013-01-06 05:04:00,
2013-01-06 00:05:00,34.7,0.0,29.92,WSW,248,4.2,8.5,0,0.00,,---,0.00,VWS V14.00,2013-01-06 05:05:00,
2013-01-06 00:06:00,23.4,0.0,30.21,North,1,0.0,0.0,0,0.00,,---,0.00,VWS V14.00,2013-01-06 05:06:00,
2013-01-06 00:07:00,34.7,0.0,29.92,West,274,0.0,8.5,0,0.00,,---,0.00,VWS V14.00,2013-01-06 05:07:00,
2013-01-06 00:08:00,34.7,0.0,29.92,West,274,0.0,8.5,0,0.00,,---,0.00,VWS V14.00,2013-01-06 05:08:00,
2013-01-06 00:11:00,23.3,0.0,30.20,North,1,0.0,0.0,0,0.00,,---,0.00,VWS V14.00,2013-01-06 05:11:00,
2013-01-06 00:16:00,23.3,0.0,30.20,North,1,0.0,0.0,0,0.00,,---,0.00,VWS V14.00,2013-01-06 05:16:00,
2013-01-06 00:21:00,22.8,0.0,30.20,North,1,0.0,0.0,0,0.00,,---,0.00,VWS V14.00,2013-01-06 05:21:00,
2013-01-06 00:26:00,22.8,0.0,30.19,North,1,0.0,0.0,0,0.00,,---,0.00,VWS V14.00,2013-01-06 05:26:00,
2013-01-06 00:31:00,22.8,0.0,30.18,North,1,0.0,0.0,0,0.00,,---,0.00,VWS V14.00,2013-01-06 05:31:00,
2013-01-06 00:36:00,22.9,0.0,30.18,North,1,0.0,0.0,0,0.00,,---,0.00,VWS V14.00,2013-01-06 05:36:00,
2013-01-06 00:41:00,23.2,0.0,30.18,North,1,0.0,0.0,0,0.00,,---,0.00,VWS V14.00,2013-01-06 05:41:00,
2013-01-06 00:46:00,23.7,0.0,30.18,North,1,0.0,0.0,0,0.00,,---,0.00,VWS V14.00,2013-01-06 05:46:00,
2013-01-06 00:51:00,23.8,0.0,30.17,North,1,0.0,0.0,0,0.00,,---,0.00,VWS V14.00,2013-01-06 05:51:00,
2013-01-06 00:56:00,23.3,0.0,30.18,North,1,0.0,0.0,0,0.00,,---,0.00,VWS V14.00,2013-01-06 05:56:00,
2013-01-06 01:01:00,23.0,0.0,30.18,North,1,0.0,0.0,0,0.00,,---,0.00,VWS V14.00,2013-01-06 06:01:00,
2013-01-06 01:06:00,23.6,0.0,30.18,North,1,0.0,0.0,0,0.00,,---,0.00,VWS V14.00,2013-01-06 06:06:00,
2013-01-06 01:11:00,23.8,0.0,30.18,North,1,0.0,0.0,0,0.00,,---,0.00,VWS V14.00,2013-01-06 06:11:00,
2013-01-06 01:16:00,23.8,0.0,30.19,North,1,0.0,0.0,0,0.00,,---,0.00,VWS V14.00,2013-01-06 06:16:00,
2013-01-06 01:21:00,23.8,0.0,30.18,North,1,0.0,0.0,0,0.00,,---,0.00,VWS V14.00,2013-01-06 06:21:00,
2013-01-06 01:26:00,24.0,0.0,30.18,North,1,0.0,0.0,0,0.00,,---,0.00,VWS V14.00,2013-01-06 06:26:00,
2013-01-06 01:31:00,24.2,0.0,30.19,North,1,0.0,0.0,0,0.00,,---,0.00,VWS V14.00,2013-01-06 06:31:00,
2013-01-06 01:36:00,24.4,0.0,30.18,North,1,0.0,0.0,0,0.00,,---,0.00,VWS V14.00,2013-01-06 06:36:00,
2013-01-06 01:41:00,24.6,0.0,30.18,North,1,0.0,0.0,0,0.00,,---,0.00,VWS V14.00,2013-01-06 06:41:00,
2013-01-06 01:46:00,24.4,0.0,30.20,North,1,0.0,0.0,0,0.00,,---,0.00,VWS V14.00,2013-01-06 06:46:00,
2013-01-06 01:51:00,24.0,0.0,30.19,WNW,298,0.0,0.0,0,0.00,,---,0.00,VWS V14.00,2013-01-06 06:51:00,
2013-01-06 01:56:00,23.9,0.0,30.19,WNW,298,0.0,5.8,0,0.00,,---,0.00,VWS V14.00,2013-01-06 06:56:00,
2013-01-06 02:01:00,24.0,0.0,30.19,WNW,283,0.0,5.3,0,0.00,,---,0.00,VWS V14.00,2013-01-06 07:01:00,
2013-01-06 02:06:00,24.3,0.0,30.20,WNW,283,0.0,0.0,0,0.00,,---,0.00,VWS V14.00,2013-01-06 07:06:00,
2013-01-06 02:11:00,24.4,0.0,30.20,WNW,283,0.0,0.0,0,0.00,,---,0.00,VWS V14.00,2013-01-06 07:11:00,
2013-01-06 02:16:00,24.5,0.0,30.21,NW,308,0.0,0.0,0,0.00,,---,0.00,VWS V14.00,2013-01-06 07:16:00,
2013-01-06 02:21:00,24.5,0.0,30.21,NW,308,0.0,3.1,0,0.00,,---,0.00,VWS V14.00,2013-01-06 07:21:00,
2013-01-06 02:26:00,24.5,0.0,30.20,West,271,0.0,4.3,0,0.00,,---,0.00,VWS V14.00,2013-01-06 07:26:00,
2013-01-06 02:31:00,24.4,0.0,30.20,NW,326,0.0,6.6,0,0.00,,---,0.00,VWS V14.00,2013-01-06 07:31:00,
2013-01-06 02:36:00,24.1,0.0,30.19,WNW,294,0.0,8.8,0,0.00,,---,0.00,VWS V14.00,2013-01-06 07:36:00,
2013-01-06 02:41:00,23.7,0.0,30.19,NW,326,0.0,7.1,0,0.00,,---,0.00,VWS V14.00,2013-01-06 07:41:00,
2013-01-06 02:46:00,23.8,0.0,30.19,WNW,292,0.0,5.8,0,0.00,,---,0.00,VWS V14.00,2013-01-06 07:46:00,
2013-01-06 02:51:00,24.0,0.0,30.19,NW,304,0.0,6.2,0,0.00,,---,0.00,VWS V14.00,2013-01-06 07:51:00,
2013-01-06 02:56:00,24.2,0.0,30.19,NW,304,0.0,5.2,0,0.00,,---,0.00,VWS V14.00,2013-01-06 07:56:00,
2013-01-06 03:01:00,24.3,0.0,30.18,NW,307,0.0,0.0,0,0.00,,---,0.00,VWS V14.00,2013-01-06 08:01:00,
2013-01-06 03:06:00,23.9,0.0,30.18,NW,307,0.0,6.4,0,0.00,,---,0.00,VWS V14.00,2013-01-06 08:06:00,
2013-01-06 03:11:00,23.8,0.0,30.17,NW,307,0.0,0.0,0,0.00,,---,0.00,VWS V14.00,2013-01-06 08:11:00,
2013-01-06 03:16:00,23.6,0.0,30.16,NW,307,0.0,0.0,0,0.00,,---,0.00,VWS V14.00,2013-01-06 08:16:00,
2013-01-06 03:21:00,23.6,0.0,30.16,NW,307,0.0,0.0,0,0.00,,---,0.00,VWS V14.00,2013-01-06 08:21:00,
2013-01-06 03:26:00,24.0,0.0,30.16,NW,307,0.0,0.0,0,0.00,,---,0.00,VWS V14.00,2013-01-06 08:26:00,
2013-01-06 03:31:00,24.3,0.0,30.16,NW,307,0.0,0.0,0,0.00,,---,0.00,VWS V14.00,2013-01-06 08:31:00,
2013-01-06 03:36:00,24.6,0.0,30.14,NW,307,0.0,0.0,0,0.00,,---,0.00,VWS V14.00,2013-01-06 08:36:00,
2013-01-06 03:41:00,24.5,0.0,30.14,NW,307,0.0,0.0,0,0.00,,---,0.00,VWS V14.00,2013-01-06 08:41:00,
2013-01-06 03:46:00,24.4,0.0,30.14,NW,307,0.0,0.0,0,0.00,,---,0.00,VWS V14.00,2013-01-06 08:46:00,
2013-01-06 03:51:00,24.6,0.0,30.13,NW,307,0.0,0.0,0,0.00,,---,0.00,VWS V14.00,2013-01-06 08:51:00,
2013-01-06 03:56:00,24.9,0.0,30.12,NW,307,0.0,0.0,0,0.00,,---,0.00,VWS V14.00,2013-01-06 08:56:00,
2013-01-06 04:01:00,24.8,0.0,30.12,NW,307,0.0,0.0,0,0.00,,---,0.00,VWS V14.00,2013-01-06 09:01:00,
2013-01-06 04:06:00,25.0,0.0,30.13,NW,307,0.0,0.0,0,0.00,,---,0.00,VWS V14.00,2013-01-06 09:06:00,
2013-01-06 04:11:00,25.4,0.0,30.12,NW,307,0.0,0.0,0,0.00,,---,0.00,VWS V14.00,2013-01-06 09:11:00,
2013-01-06 04:16:00,25.5,0.0,30.12,NW,307,0.0,0.0,0,0.00,,---,0.00,VWS V14.00,2013-01-06 09:16:00,
2013-01-06 04:21:00,25.4,0.0,30.12,West,262,0.0,0.0,0,0.00,,---,0.00,VWS V14.00,2013-01-06 09:21:00,
2013-01-06 04:26:00,25.6,0.0,30.12,West,262,0.0,5.2,0,0.00,,---,0.00,VWS V14.00,2013-01-06 09:26:00,
2013-01-06 04:31:00,25.5,0.0,30.11,West,262,0.0,0.0,0,0.00,,---,0.00,VWS V14.00,2013-01-06 09:31:00,
2013-01-06 04:36:00,25.4,0.0,30.11,West,262,0.0,0.0,0,0.00,,---,0.00,VWS V14.00,2013-01-06 09:36:00,
2013-01-06 04:41:00,25.7,0.0,30.11,West,262,0.0,0.0,0,0.00,,---,0.00,VWS V14.00,2013-01-06 09:41:00,
2013-01-06 04:46:00,25.9,0.0,30.12,West,262,0.0,0.0,0,0.00,,---,0.00,VWS V14.00,2013-01-06 09:46:00,
2013-01-06 04:51:00,26.0,0.0,30.11,West,262,0.0,0.0,0,0.00,,---,0.00,VWS V14.00,2013-01-06 09:51:00,
2013-01-06 04:56:00,26.4,0.0,30.11,WSW,250,4.5,9.9,0,0.00,,---,0.00,VWS V14.00,2013-01-06 09:56:00,
2013-01-06 05:01:00,26.5,0.0,30.10,WSW,239,0.0,7.8,0,0.00,,---,0.00,VWS V14.00,2013-01-06 10:01:00,
2013-01-06 05:06:00,26.7,0.0,30.11,SW,214,3.5,5.5,0,0.00,,---,0.00,VWS V14.00,2013-01-06 10:06:00,
2013-01-06 05:11:00,26.7,0.0,30.10,WSW,238,0.0,5.8,0,0.00,,---,0.00,VWS V14.00,2013-01-06 10:11:00,
2013-01-06 05:16:00,26.9,0.0,30.10,WSW,238,0.0,0.0,0,0.00,,---,0.00,VWS V14.00,2013-01-06 10:16:00,
2013-01-06 05:21:00,26.9,0.0,30.10,WSW,238,0.0,0.0,0,0.00,,---,0.00,VWS V14.00,2013-01-06 10:21:00,
2013-01-06 05:26:00,27.0,0.0,30.10,WSW,238,0.0,0.0,0,0.00,,---,0.00,VWS V14.00,2013-01-06 10:26:00,
2013-01-06 05:31:00,27.2,0.0,30.09,WSW,238,0.0,0.0,0,0.00,,---,0.00,VWS V14.00,2013-01-06 10:31:00,
2013-01-06 05:36:00,27.1,0.0,30.09,WSW,238,0.0,0.0,0,0.00,,---,0.00,VWS V14.00,2013-01-06 10:36:00,
2013-01-06 05:41:00,27.2,0.0,30.09,SSW,205,0.0,6.6,0,0.00,,---,0.00,VWS V14.00,2013-01-06 10:41:00,
2013-01-06 05:46:00,27.3,0.0,30.09,SW,226,0.0,0.0,0,0.00,,---,0.00,VWS V14.00,2013-01-06 10:46:00,
2013-01-06 05:51:00,27.4,0.0,30.09,SW,226,0.0,5.0,0,0.00,,---,0.00,VWS V14.00,2013-01-06 10:51:00,
2013-01-06 05:56:00,27.4,0.0,30.09,WSW,243,0.0,0.0,0,0.00,,---,0.00,VWS V14.00,2013-01-06 10:56:00,
2013-01-06 06:01:00,27.4,0.0,30.09,SSW,204,4.5,7.0,0,0.00,,---,0.00,VWS V14.00,2013-01-06 11:01:00,
2013-01-06 06:06:00,27.4,0.0,30.08,SSW,201,0.0,6.0,0,0.00,,---,0.00,VWS V14.00,2013-01-06 11:06:00,
2013-01-06 06:11:00,27.4,0.0,30.08,SSW,201,0.0,0.0,0,0.00,,---,0.00,VWS V14.00,2013-01-06 11:11:00,
2013-01-06 06:16:00,27.5,0.0,30.07,SSW,201,0.0,0.0,0,0.00,,---,0.00,VWS V14.00,2013-01-06 11:16:00,
2013-01-06 06:21:00,27.7,0.0,30.07,SW,226,0.0,3.4,0,0.00,,---,0.00,VWS V14.00,2013-01-06 11:21:00,
2013-01-06 06:26:00,27.6,0.0,30.07,SW,226,0.0,3.1,0,0.00,,---,0.00,VWS V14.00,2013-01-06 11:26:00,
2013-01-06 06:31:00,27.7,0.0,30.07,SW,226,0.0,0.0,0,0.00,,---,0.00,VWS V14.00,2013-01-06 11:31:00,
2013-01-06 06:36:00,27.7,0.0,30.06,SSW,210,0.0,3.1,0,0.00,,---,0.00,VWS V14.00,2013-01-06 11:36:00,
2013-01-06 06:41:00,27.6,0.0,30.06,SSW,210,0.0,0.0,0,0.00,,---,0.00,VWS V14.00,2013-01-06 11:41:00,
2013-01-06 06:46:00,27.7,0.0,30.06,SSW,210,0.0,0.0,0,0.00,,---,0.00,VWS V14.00,2013-01-06 11:46:00,
2013-01-06 06:51:00,27.8,0.0,30.06,SSW,210,0.0,0.0,0,0.00,,---,0.00,VWS V14.00,2013-01-06 11:51:00,
2013-01-06 06:56:00,27.7,0.0,30.06,SSW,210,0.0,0.0,0,0.00,,---,0.00,VWS V14.00,2013-01-06 11:56:00,
2013-01-06 07:01:00,26.5,0.0,30.07,SSW,210,0.0,0.0,0,0.00,,---,0.00,VWS V14.00,2013-01-06 12:01:00,
2013-01-06 07:06:00,26.4,0.0,30.07,SSW,210,0.0,0.0,0,0.00,,---,0.00,VWS V14.00,2013-01-06 12:06:00,
2013-01-06 07:11:00,26.7,0.0,30.07,SSW,210,0.0,0.0,0,0.00,,---,0.00,VWS V14.00,2013-01-06 12:11:00,
2013-01-06 07:16:00,26.6,0.0,30.06,SSW,210,0.0,0.0,0,0.00,,---,0.00,VWS V14.00,2013-01-06 12:16:00,
2013-01-06 07:21:00,26.7,0.0,30.06,SSW,210,0.0,0.0,0,0.00,,---,0.00,VWS V14.00,2013-01-06 12:21:00,
2013-01-06 07:26:00,26.7,0.0,30.06,SSW,210,0.0,0.0,0,0.00,,---,0.00,VWS V14.00,2013-01-06 12:26:00,
2013-01-06 07:31:00,26.7,0.0,30.05,SSW,210,0.0,0.0,0,0.00,,---,0.00,VWS V14.00,2013-01-06 12:31:00,
2013-01-06 07:36:00,26.9,0.0,30.05,SSW,210,0.0,0.0,0,0.00,,---,0.00,VWS V14.00,2013-01-06 12:36:00,
2013-01-06 07:41:00,27.4,0.0,30.05,SSW,210,0.0,0.0,0,0.00,,---,0.00,VWS V14.00,2013-01-06 12:41:00,
2013-01-06 07:46:00,27.6,0.0,30.05,SSW,210,0.0,0.0,0,0.00,,---,0.00,VWS V14.00,2013-01-06 12:46:00,
2013-01-06 07:51:00,27.8,0.0,30.05,SSW,210,0.0,0.0,0,0.00,,---,0.00,VWS V14.00,2013-01-06 12:51:00,
2013-01-06 07:56:00,27.6,0.0,30.05,SSW,210,0.0,0.0,0,0.00,,---,0.00,VWS V14.00,2013-01-06 12:56:00,
2013-01-06 08:01:00,27.6,0.0,30.04,SSW,210,0.0,0.0,0,0.00,,---,0.00,VWS V14.00,2013-01-06 13:01:00,
2013-01-06 08:06:00,27.7,0.0,30.04,SSW,210,0.0,0.0,0,0.00,,---,0.00,VWS V14.00,2013-01-06 13:06:00,
2013-01-06 08:11:00,27.8,0.0,30.03,SSW,210,0.0,0.0,0,0.00,,---,0.00,VWS V14.00,2013-01-06 13:11:00,
2013-01-06 08:16:00,27.7,0.0,30.03,SSW,210,0.0,0.0,0,0.00,,---,0.00,VWS V14.00,2013-01-06 13:16:00,
2013-01-06 08:21:00,27.9,0.0,30.03,SSW,210,0.0,0.0,0,0.00,,---,0.00,VWS V14.00,2013-01-06 13:21:00,
2013-01-06 08:26:00,28.0,0.0,30.03,South,187,0.0,6.7,0,0.00,,---,0.00,VWS V14.00,2013-01-06 13:26:00,
2013-01-06 08:31:00,28.0,0.0,30.03,South,176,0.0,4.3,0,0.00,,---,0.00,VWS V14.00,2013-01-06 13:31:00,
2013-01-06 08:36:00,28.1,0.0,30.03,South,176,0.0,6.5,0,0.00,,---,0.00,VWS V14.00,2013-01-06 13:36:00,
2013-01-06 08:41:00,28.1,0.0,30.03,South,174,0.0,0.0,0,0.00,,---,0.00,VWS V14.00,2013-01-06 13:41:00,
2013-01-06 08:46:00,28.4,0.0,30.03,SW,217,3.3,7.9,0,0.00,,---,0.00,VWS V14.00,2013-01-06 13:46:00,
2013-01-06 08:51:00,28.8,0.0,30.03,South,170,3.4,8.4,0,0.00,,---,0.00,VWS V14.00,2013-01-06 13:51:00,
2013-01-06 08:56:00,29.2,0.0,30.03,SSW,205,6.6,9.4,0,0.00,,---,0.00,VWS V14.00,2013-01-06 13:56:00,
2013-01-06 09:01:00,29.3,0.0,30.03,SW,235,8.8,11.4,0,0.00,,---,0.00,VWS V14.00,2013-01-06 14:01:00,
2013-01-06 09:06:00,29.4,0.0,30.03,SW,217,7.5,10.9,0,0.00,,---,0.00,VWS V14.00,2013-01-06 14:06:00,
2013-01-06 09:11:00,29.7,0.0,30.03,WSW,242,8.5,9.8,0,0.00,,---,0.00,VWS V14.00,2013-01-06 14:11:00,
2013-01-06 09:16:00,30.1,0.0,30.03,South,184,6.5,9.9,0,0.00,,---,0.00,VWS V14.00,2013-01-06 14:16:00,
2013-01-06 09:21:00,30.1,0.0,30.03,WSW,238,8.5,11.9,0,0.00,,---,0.00,VWS V14.00,2013-01-06 14:21:00,
2013-01-06 09:26:00,30.4,0.0,30.02,SW,218,9.5,12.0,0,0.00,,---,0.00,VWS V14.00,2013-01-06 14:26:00,
2013-01-06 09:31:00,31.0,0.0,30.02,SSW,211,0.0,12.3,0,0.00,,---,0.00,VWS V14.00,2013-01-06 14:31:00,
2013-01-06 09:36:00,31.4,0.0,30.02,WSW,246,9.7,11.4,0,0.00,,---,0.00,VWS V14.00,2013-01-06 14:36:00,
2013-01-06 09:41:00,31.7,0.0,30.02,SW,229,8.3,13.7,0,0.00,,---,0.00,VWS V14.00,2013-01-06 14:41:00,
2013-01-06 09:46:00,31.9,0.0,30.02,WSW,240,9.4,11.2,0,0.00,,---,0.00,VWS V14.00,2013-01-06 14:46:00,
2013-01-06 09:51:00,32.3,0.0,30.02,WSW,246,8.3,14.1,0,0.00,,---,0.00,VWS V14.00,2013-01-06 14:51:00,
2013-01-06 09:56:00,32.7,0.0,30.02,SW,228,9.8,13.5,0,0.00,,---,0.00,VWS V14.00,2013-01-06 14:56:00,
2013-01-06 10:01:00,33.3,0.0,30.02,West,264,6.0,13.2,0,0.00,,---,0.00,VWS V14.00,2013-01-06 15:01:00,
2013-01-06 10:06:00,33.6,0.0,30.02,SW,228,8.2,15.4,0,0.00,,---,0.00,VWS V14.00,2013-01-06 15:06:00,
2013-01-06 10:11:00,34.3,0.0,30.01,WSW,238,9.1,12.6,0,0.00,,---,0.00,VWS V14.00,2013-01-06 15:11:00,
2013-01-06 10:16:00,35.1,0.0,30.01,SW,228,4.5,12.1,0,0.00,,---,0.00,VWS V14.00,2013-01-06 15:16:00,
2013-01-06 10:21:00,35.5,0.0,30.01,SW,224,9.6,9.9,0,0.00,,---,0.00,VWS V14.00,2013-01-06 15:21:00,
2013-01-06 10:26:00,36.4,0.0,30.00,WSW,238,4.8,11.1,0,0.00,,---,0.00,VWS V14.00,2013-01-06 15:26:00,
2013-01-06 10:31:00,37.2,0.0,30.00,SW,226,9.8,12.3,0,0.00,,---,0.00,VWS V14.00,2013-01-06 15:31:00,
2013-01-06 10:36:00,36.8,0.0,30.00,WNW,302,9.8,12.1,0,0.00,,---,0.00,VWS V14.00,2013-01-06 15:36:00,
2013-01-06 10:41:00,37.0,0.0,29.99,SW,228,9.3,14.8,0,0.00,,---,0.00,VWS V14.00,2013-01-06 15:41:00,
2013-01-06 10:46:00,37.9,0.0,29.99,SW,229,4.3,11.7,0,0.00,,---,0.00,VWS V14.00,2013-01-06 15:46:00,
2013-01-06 10:51:00,38.7,0.0,29.99,SW,219,4.8,10.5,0,0.00,,---,0.00,VWS V14.00,2013-01-06 15:51:00,
2013-01-06 10:56:00,38.3,0.0,29.98,West,262,6.6,10.4,0,0.00,,---,0.00,VWS V14.00,2013-01-06 15:56:00,
2013-01-06 11:01:00,38.5,0.0,29.98,SW,236,5.2,13.2,0,0.00,,---,0.00,VWS V14.00,2013-01-06 16:01:00,
2013-01-06 11:06:00,38.4,0.0,29.97,WSW,239,8.5,13.3,0,0.00,,---,0.00,VWS V14.00,2013-01-06 16:06:00,
2013-01-06 11:11:00,38.4,0.0,29.97,WSW,243,8.6,14.7,0,0.00,,---,0.00,VWS V14.00,2013-01-06 16:11:00,
2013-01-06 11:15:00,38.3,0.0,29.97,SW,232,8.8,14.7,0,0.00,,---,0.00,VWS V14.00,2013-01-06 16:15:00,
2013-01-06 11:20:00,38.3,0.0,29.97,SW,218,9.2,16.4,0,0.00,,---,0.00,VWS V14.00,2013-01-06 16:20:00,
2013-01-06 11:25:00,38.4,0.0,29.96,SW,214,9.1,16.6,0,0.00,,---,0.00,VWS V14.00,2013-01-06 16:25:00,
2013-01-06 11:30:00,39.0,0.0,29.96,SW,228,9.9,14.9,0,0.00,,---,0.00,VWS V14.00,2013-01-06 16:30:00,
2013-01-06 11:35:00,38.9,0.0,29.95,SW,233,8.1,12.9,0,0.00,,---,0.00,VWS V14.00,2013-01-06 16:35:00,
2013-01-06 11:40:00,39.0,0.0,29.95,SSW,204,0.0,14.1,0,0.00,,---,0.00,VWS V14.00,2013-01-06 16:40:00,
2013-01-06 11:45:00,39.8,0.0,29.95,WSW,246,3.5,12.1,0,0.00,,---,0.00,VWS V14.00,2013-01-06 16:45:00,
2013-01-06 11:50:00,39.7,0.0,29.94,SW,226,9.4,11.5,0,0.00,,---,0.00,VWS V14.00,2013-01-06 16:50:00,
2013-01-06 11:55:00,39.7,0.0,29.94,SW,217,3.4,11.6,0,0.00,,---,0.00,VWS V14.00,2013-01-06 16:55:00,
2013-01-06 12:00:00,39.9,0.0,29.94,SW,222,11.9,14.4,0,0.00,,---,0.00,VWS V14.00,2013-01-06 17:00:00,
2013-01-06 12:05:00,39.9,0.0,29.94,SSW,193,6.4,13.6,0,0.00,,---,0.00,VWS V14.00,2013-01-06 17:05:00,
2013-01-06 12:10:00,39.8,0.0,29.94,West,278,3.2,15.2,0,0.00,,---,0.00,VWS V14.00,2013-01-06 17:10:00,
2013-01-06 12:15:00,39.8,0.0,29.93,SW,215,4.7,12.1,0,0.00,,---,0.00,VWS V14.00,2013-01-06 17:15:00,
2013-01-06 12:20:00,40.2,0.0,29.93,WSW,252,0.0,11.6,0,0.00,,---,0.00,VWS V14.00,2013-01-06 17:20:00,
2013-01-06 12:25:00,40.3,0.0,29.93,West,274,5.7,11.4,0,0.00,,---,0.00,VWS V14.00,2013-01-06 17:25:00,
2013-01-06 12:30:00,40.5,0.0,29.93,WNW,294,0.0,13.2,0,0.00,,---,0.00,VWS V14.00,2013-01-06 17:30:00,
2013-01-06 12:35:00,40.8,0.0,29.92,WSW,239,4.7,11.6,0,0.00,,---,0.00,VWS V14.00,2013-01-06 17:35:00,
2013-01-06 12:40:00,41.0,0.0,29.92,WSW,248,4.2,11.5,0,0.00,,---,0.00,VWS V14.00,2013-01-06 17:40:00,
2013-01-06 12:45:00,41.4,0.0,29.92,WSW,239,8.2,9.6,0,0.00,,---,0.00,VWS V14.00,2013-01-06 17:45:00,
2013-01-06 12:50:00,41.9,0.0,29.92,WSW,246,3.2,10.0,0,0.00,,---,0.00,VWS V14.00,2013-01-06 17:50:00,
2013-01-06 12:55:00,42.0,0.0,29.92,WSW,246,0.0,9.4,0,0.00,,---,0.00,VWS V14.00,2013-01-06 17:55:00,
2013-01-06 13:00:00,42.4,0.0,29.92,SW,233,9.6,0.0,0,0.00,,---,0.00,VWS V14.00,2013-01-06 18:00:00,
2013-01-06 13:05:00,42.2,0.0,29.92,WSW,256,6.6,12.0,0,0.00,,---,0.00,VWS V14.00,2013-01-06 18:05:00,
2013-01-06 13:10:00,42.6,0.0,29.91,WSW,253,6.4,8.8,0,0.00,,---,0.00,VWS V14.00,2013-01-06 18:10:00,
2013-01-06 13:15:00,42.3,0.0,29.91,WSW,243,3.5,11.8,0,0.00,,---,0.00,VWS V14.00,2013-01-06 18:15:00,
2013-01-06 13:20:00,42.4,0.0,29.91,WSW,240,0.0,8.7,0,0.00,,---,0.00,VWS V14.00,2013-01-06 18:20:00,
2013-01-06 13:25:00,42.7,0.0,29.91,NW,304,5.2,9.4,0,0.00,,---,0.00,VWS V14.00,2013-01-06 18:25:00,
2013-01-06 13:30:00,42.3,0.0,29.91,West,280,3.2,11.1,0,0.00,,---,0.00,VWS V14.00,2013-01-06 18:30:00,
2013-01-06 13:35:00,42.2,0.0,29.91,WNW,288,0.0,9.3,0,0.00,,---,0.00,VWS V14.00,2013-01-06 18:35:00,
2013-01-06 13:40:00,42.2,0.0,29.91,WSW,243,6.2,12.8,0,0.00,,---,0.00,VWS V14.00,2013-01-06 18:40:00,
2013-01-06 13:45:00,42.5,0.0,29.91,SW,231,9.9,9.9,0,0.00,,---,0.00,VWS V14.00,2013-01-06 18:45:00,
2013-01-06 13:50:00,42.3,0.0,29.91,WSW,257,3.2,12.6,0,0.00,,---,0.00,VWS V14.00,2013-01-06 18:50:00,
2013-01-06 13:55:00,42.7,0.0,29.91,WSW,256,7.1,12.3,0,0.00,,---,0.00,VWS V14.00,2013-01-06 18:55:00,
2013-01-06 14:00:00,42.9,0.0,29.91,West,264,0.0,9.4,0,0.00,,---,0.00,VWS V14.00,2013-01-06 19:00:00,
2013-01-06 14:05:00,42.5,0.0,29.91,NW,304,5.5,9.9,0,0.00,,---,0.00,VWS V14.00,2013-01-06 19:05:00,
2013-01-06 14:10:00,42.1,0.0,29.91,West,278,0.0,8.7,0,0.00,,---,0.00,VWS V14.00,2013-01-06 19:10:00,
2013-01-06 14:15:00,41.6,0.0,29.91,WNW,287,4.9,10.0,0,0.00,,---,0.00,VWS V14.00,2013-01-06 19:15:00,
2013-01-06 14:20:00,42.0,0.0,29.91,WSW,246,0.0,8.0,0,0.00,,---,0.00,VWS V14.00,2013-01-06 19:20:00,
2013-01-06 14:25:00,42.3,0.0,29.91,West,259,4.7,7.8,0,0.00,,---,0.00,VWS V14.00,2013-01-06 19:25:00,
2013-01-06 14:30:00,42.1,0.0,29.91,WSW,252,0.0,9.8,0,0.00,,---,0.00,VWS V14.00,2013-01-06 19:30:00,
2013-01-06 14:35:00,42.0,0.0,29.91,SW,217,5.0,13.4,0,0.00,,---,0.00,VWS V14.00,2013-01-06 19:35:00,
2013-01-06 14:40:00,42.0,0.0,29.91,West,259,4.8,10.1,0,0.00,,---,0.00,VWS V14.00,2013-01-06 19:40:00,
2013-01-06 14:45:00,41.9,0.0,29.91,SW,221,0.0,11.8,0,0.00,,---,0.00,VWS V14.00,2013-01-06 19:45:00,
2013-01-06 14:51:00,41.7,0.0,29.91,WSW,245,0.0,14.4,0,0.00,,---,0.00,VWS V14.00,2013-01-06 19:51:00,
2013-01-06 14:56:00,41.5,0.0,29.91,WSW,253,5.7,10.6,0,0.00,,---,0.00,VWS V14.00,2013-01-06 19:56:00,
2013-01-06 15:01:00,41.0,0.0,29.91,WNW,287,0.0,12.8,0,0.00,,---,0.00,VWS V14.00,2013-01-06 20:01:00,
2013-01-06 15:06:00,41.1,0.0,29.91,WNW,290,6.6,12.0,0,0.00,,---,0.00,VWS V14.00,2013-01-06 20:06:00,
2013-01-06 15:11:00,41.3,0.0,29.91,West,263,0.0,7.8,0,0.00,,---,0.00,VWS V14.00,2013-01-06 20:11:00,
2013-01-06 15:13:00,41.3,0.0,29.91,West,274,0.0,7.8,0,0.00,,---,0.00,VWS V14.00,2013-01-06 20:13:00,
2013-01-06 15:18:00,41.0,0.0,29.90,West,262,5.3,9.6,0,0.00,,---,0.00,VWS V14.00,2013-01-06 20:18:00,
2013-01-06 15:23:00,40.8,0.0,29.90,NW,319,4.2,7.3,0,0.00,,---,0.00,VWS V14.00,2013-01-06 20:23:00,
2013-01-06 15:28:00,40.8,0.0,29.90,SW,236,8.3,8.8,0,0.00,,---,0.00,VWS V14.00,2013-01-06 20:28:00,
2013-01-06 15:33:00,40.6,0.0,29.90,West,273,2.4,9.1,0,0.00,,---,0.00,VWS V14.00,2013-01-06 20:33:00,
2013-01-06 15:38:00,40.5,0.0,29.90,SW,217,7.0,10.2,0,0.00,,---,0.00,VWS V14.00,2013-01-06 20:38:00,
2013-01-06 15:43:00,40.1,0.0,29.90,SW,236,6.6,9.3,0,0.00,,---,0.00,VWS V14.00,2013-01-06 20:43:00,
2013-01-06 15:48:00,40.0,0.0,29.90,SSW,202,4.3,8.8,0,0.00,,---,0.00,VWS V14.00,2013-01-06 20:48:00,
2013-01-06 15:53:00,39.8,0.0,29.90,WSW,242,6.1,8.8,0,0.00,,---,0.00,VWS V14.00,2013-01-06 20:53:00,
2013-01-06 15:58:00,39.5,0.0,29.90,SSW,211,5.9,8.7,0,0.00,,---,0.00,VWS V14.00,2013-01-06 20:58:00,
2013-01-06 16:00:00,39.6,0.0,29.90,SW,225,7.6,8.7,0,0.00,,---,0.00,VWS V14.00,2013-01-06 21:00:00,
2013-01-06 16:05:00,39.3,0.0,29.90,West,269,4.4,9.3,0,0.00,,---,0.00,VWS V14.00,2013-01-06 21:05:00,
2013-01-06 16:10:00,39.1,0.0,29.90,West,262,2.9,8.5,0,0.00,,---,0.00,VWS V14.00,2013-01-06 21:10:00,
2013-01-06 16:15:00,38.8,0.0,29.90,SSW,212,2.1,9.8,0,0.00,,---,0.00,VWS V14.00,2013-01-06 21:15:00,
2013-01-06 16:20:00,38.5,0.0,29.91,SW,229,4.2,8.9,0,0.00,,---,0.00,VWS V14.00,2013-01-06 21:20:00,
2013-01-06 16:25:00,38.3,0.0,29.91,SW,236,0.0,8.4,0,0.00,,---,0.00,VWS V14.00,2013-01-06 21:25:00,
2013-01-06 16:30:00,38.1,0.0,29.91,SW,236,0.0,6.8,0,0.00,,---,0.00,VWS V14.00,2013-01-06 21:30:00,
2013-01-06 16:35:00,37.8,0.0,29.91,SW,236,0.0,0.0,0,0.00,,---,0.00,VWS V14.00,2013-01-06 21:35:00,
2013-01-06 16:40:00,37.8,0.0,29.91,SW,236,0.0,0.0,0,0.00,,---,0.00,VWS V14.00,2013-01-06 21:40:00,
2013-01-06 16:45:00,37.9,0.0,29.91,WSW,249,0.0,5.1,0,0.00,,---,0.00,VWS V14.00,2013-01-06 21:45:00,
2013-01-06 16:50:00,37.8,0.0,29.91,WSW,249,0.0,4.8,0,0.00,,---,0.00,VWS V14.00,2013-01-06 21:50:00,
2013-01-06 16:55:00,37.5,0.0,29.92,WSW,249,0.0,0.0,0,0.00,,---,0.00,VWS V14.00,2013-01-06 21:55:00,
2013-01-06 17:00:00,37.4,0.0,29.92,SW,214,0.0,3.1,0,0.00,,---,0.00,VWS V14.00,2013-01-06 22:00:00,
2013-01-06 17:05:00,37.3,0.0,29.92,SW,214,0.0,0.0,0,0.00,,---,0.00,VWS V14.00,2013-01-06 22:05:00,
2013-01-06 17:10:00,37.2,0.0,29.92,West,263,2.9,0.0,0,0.00,,---,0.00,VWS V14.00,2013-01-06 22:10:00,
2013-01-06 17:15:00,36.9,0.0,29.92,West,263,0.0,3.2,0,0.00,,---,0.00,VWS V14.00,2013-01-06 22:15:00,
2013-01-06 17:20:00,37.0,0.0,29.92,West,263,0.0,0.0,0,0.00,,---,0.00,VWS V14.00,2013-01-06 22:20:00,
2013-01-06 17:25:00,36.7,0.0,29.92,West,263,0.0,0.0,0,0.00,,---,0.00,VWS V14.00,2013-01-06 22:25:00,
2013-01-06 17:30:00,36.6,0.0,29.92,West,263,0.0,0.0,0,0.00,,---,0.00,VWS V14.00,2013-01-06 22:30:00,
2013-01-06 17:35:00,36.4,0.0,29.92,West,263,0.0,0.0,0,0.00,,---,0.00,VWS V14.00,2013-01-06 22:35:00,
2013-01-06 17:40:00,36.4,0.0,29.92,West,263,0.0,0.0,0,0.00,,---,0.00,VWS V14.00,2013-01-06 22:40:00,
2013-01-06 17:45:00,36.2,0.0,29.92,West,263,0.0,0.0,0,0.00,,---,0.00,VWS V14.00,2013-01-06 22:45:00,
2013-01-06 17:50:00,36.1,0.0,29.93,West,263,0.0,0.0,0,0.00,,---,0.00,VWS V14.00,2013-01-06 22:50:00,
2013-01-06 17:55:00,36.3,0.0,29.93,West,263,0.0,0.0,0,0.00,,---,0.00,VWS V14.00,2013-01-06 22:55:00,
2013-01-06 18:00:00,36.3,0.0,29.93,West,263,0.0,0.0,0,0.00,,---,0.00,VWS V14.00,2013-01-06 23:00:00,
2013-01-06 18:05:00,36.2,0.0,29.93,West,263,0.0,0.0,0,0.00,,---,0.00,VWS V14.00,2013-01-06 23:05:00,
2013-01-06 18:10:00,35.8,0.0,29.93,West,263,0.0,0.0,0,0.00,,---,0.00,VWS V14.00,2013-01-06 23:10:00,
2013-01-06 18:15:00,35.3,0.0,29.93,West,263,0.0,0.0,0,0.00,,---,0.00,VWS V14.00,2013-01-06 23:15:00,
2013-01-06 18:20:00,35.0,0.0,29.93,West,263,0.0,0.0,0,0.00,,---,0.00,VWS V14.00,2013-01-06 23:20:00,
2013-01-06 18:25:00,35.0,0.0,29.93,West,263,0.0,0.0,0,0.00,,---,0.00,VWS V14.00,2013-01-06 23:25:00,
2013-01-06 18:30:00,34.9,0.0,29.93,West,263,0.0,0.0,0,0.00,,---,0.00,VWS V14.00,2013-01-06 23:30:00,
2013-01-06 18:35:00,34.9,0.0,29.92,West,263,0.0,0.0,0,0.00,,---,0.00,VWS V14.00,2013-01-06 23:35:00,
2013-01-06 18:40:00,34.9,0.0,29.92,West,263,0.0,0.0,0,0.00,,---,0.00,VWS V14.00,2013-01-06 23:40:00,
2013-01-06 18:45:00,34.7,0.0,29.92,West,263,0.0,0.0,0,0.00,,---,0.00,VWS V14.00,2013-01-06 23:45:00,
2013-01-06 18:50:00,34.9,0.0,29.92,West,263,0.0,0.0,0,0.00,,---,0.00,VWS V14.00,2013-01-06 23:50:00,
2013-01-06 18:55:00,35.3,0.0,29.93,West,263,0.0,0.0,0,0.00,,---,0.00,VWS V14.00,2013-01-06 23:55:00,
2013-01-06 19:00:00,35.4,0.0,29.93,WSW,248,0.0,0.0,0,0.00,,---,0.00,VWS V14.00,2013-01-07 00:00:00,
2013-01-06 19:05:00,35.4,0.0,29.93,SW,236,0.0,3.2,0,0.00,,---,0.00,VWS V14.00,2013-01-07 00:05:00,
2013-01-06 19:10:00,35.2,0.0,29.93,SW,236,0.0,3.0,0,0.00,,---,0.00,VWS V14.00,2013-01-07 00:10:00,
2013-01-06 19:15:00,35.1,0.0,29.93,SW,236,0.0,0.0,0,0.00,,---,0.00,VWS V14.00,2013-01-07 00:15:00,
2013-01-06 19:20:00,35.1,0.0,29.93,SW,236,0.0,0.0,0,0.00,,---,0.00,VWS V14.00,2013-01-07 00:20:00,
2013-01-06 19:25:00,35.1,0.0,29.93,SW,236,0.0,0.0,0,0.00,,---,0.00,VWS V14.00,2013-01-07 00:25:00,
2013-01-06 19:30:00,35.5,0.0,29.94,SW,236,0.0,0.0,0,0.00,,---,0.00,VWS V14.00,2013-01-07 00:30:00,
2013-01-06 19:35:00,35.5,0.0,29.93,SW,231,0.0,4.6,0,0.00,,---,0.00,VWS V14.00,2013-01-07 00:35:00,
2013-01-06 19:40:00,35.5,0.0,29.93,SW,231,0.0,2.9,0,0.00,,---,0.00,VWS V14.00,2013-01-07 00:40:00,
2013-01-06 19:45:00,35.6,0.0,29.94,SW,231,0.0,0.0,0,0.00,,---,0.00,VWS V14.00,2013-01-07 00:45:00,
2013-01-06 19:50:00,35.6,0.0,29.94,SW,231,0.0,0.0,0,0.00,,---,0.00,VWS V14.00,2013-01-07 00:50:00,
2013-01-06 19:55:00,35.4,0.0,29.94,SW,231,0.0,0.0,0,0.00,,---,0.00,VWS V14.00,2013-01-07 00:55:00,
2013-01-06 20:00:00,35.4,0.0,29.93,WSW,240,0.0,3.1,0,0.00,,---,0.00,VWS V14.00,2013-01-07 01:00:00,
2013-01-06 20:05:00,35.4,0.0,29.94,WSW,240,0.0,4.3,0,0.00,,---,0.00,VWS V14.00,2013-01-07 01:05:00,
2013-01-06 20:10:00,35.4,0.0,29.93,WSW,240,0.0,0.0,0,0.00,,---,0.00,VWS V14.00,2013-01-07 01:10:00,
2013-01-06 20:15:00,35.4,0.0,29.93,WSW,240,0.0,0.0,0,0.00,,---,0.00,VWS V14.00,2013-01-07 01:15:00,
2013-01-06 20:20:00,35.3,0.0,29.93,WSW,240,0.0,0.0,0,0.00,,---,0.00,VWS V14.00,2013-01-07 01:20:00,
2013-01-06 20:25:00,35.3,0.0,29.93,WSW,240,0.0,0.0,0,0.00,,---,0.00,VWS V14.00,2013-01-07 01:25:00,
2013-01-06 20:30:00,35.3,0.0,29.93,WSW,240,0.0,0.0,0,0.00,,---,0.00,VWS V14.00,2013-01-07 01:30:00,
2013-01-06 20:35:00,35.4,0.0,29.93,WSW,240,0.0,0.0,0,0.00,,---,0.00,VWS V14.00,2013-01-07 01:35:00,
2013-01-06 20:40:00,35.4,0.0,29.93,WSW,240,0.0,0.0,0,0.00,,---,0.00,VWS V14.00,2013-01-07 01:40:00,
2013-01-06 20:45:00,35.3,0.0,29.93,WSW,240,0.0,0.0,0,0.00,,---,0.00,VWS V14.00,2013-01-07 01:45:00,
2013-01-06 20:50:00,35.4,0.0,29.93,WSW,240,0.0,0.0,0,0.00,,---,0.00,VWS V14.00,2013-01-07 01:50:00,
2013-01-06 20:55:00,35.6,0.0,29.93,WSW,240,0.0,0.0,0,0.00,,---,0.00,VWS V14.00,2013-01-07 01:55:00,
2013-01-06 21:00:00,35.5,0.0,29.92,WSW,240,0.0,0.0,0,0.00,,---,0.00,VWS V14.00,2013-01-07 02:00:00,
2013-01-06 21:05:00,35.5,0.0,29.93,WSW,240,0.0,0.0,0,0.00,,---,0.00,VWS V14.00,2013-01-07 02:05:00,
2013-01-06 21:10:00,35.5,0.0,29.93,WSW,240,0.0,0.0,0,0.00,,---,0.00,VWS V14.00,2013-01-07 02:10:00,
2013-01-06 21:15:00,35.4,0.0,29.92,WSW,240,0.0,0.0,0,0.00,,---,0.00,VWS V14.00,2013-01-07 02:15:00,
2013-01-06 21:20:00,35.3,0.0,29.93,WSW,240,0.0,0.0,0,0.00,,---,0.00,VWS V14.00,2013-01-07 02:20:00,
2013-01-06 21:25:00,35.3,0.0,29.93,WSW,240,0.0,0.0,0,0.00,,---,0.00,VWS V14.00,2013-01-07 02:25:00,
2013-01-06 21:30:00,35.3,0.0,29.92,WSW,240,0.0,0.0,0,0.00,,---,0.00,VWS V14.00,2013-01-07 02:30:00,
2013-01-06 21:35:00,35.3,0.0,29.92,WSW,240,0.0,0.0,0,0.00,,---,0.00,VWS V14.00,2013-01-07 02:35:00,
2013-01-06 21:40:00,35.1,0.0,29.92,WSW,240,0.0,0.0,0,0.00,,---,0.00,VWS V14.00,2013-01-07 02:40:00,
2013-01-06 21:45:00,35.1,0.0,29.92,WSW,240,0.0,0.0,0,0.00,,---,0.00,VWS V14.00,2013-01-07 02:45:00,
2013-01-06 21:50:00,35.0,0.0,29.92,WSW,240,0.0,0.0,0,0.00,,---,0.00,VWS V14.00,2013-01-07 02:50:00,
2013-01-06 21:55:00,35.0,0.0,29.92,WSW,240,0.0,0.0,0,0.00,,---,0.00,VWS V14.00,2013-01-07 02:55:00,
2013-01-06 22:00:00,35.0,0.0,29.92,WSW,240,0.0,0.0,0,0.00,,---,0.00,VWS V14.00,2013-01-07 03:00:00,
2013-01-06 22:05:00,34.8,0.0,29.92,WSW,240,0.0,0.0,0,0.00,,---,0.00,VWS V14.00,2013-01-07 03:05:00,
2013-01-06 22:10:00,34.6,0.0,29.93,SW,222,0.0,6.3,0,0.00,,---,0.00,VWS V14.00,2013-01-07 03:10:00,
2013-01-06 22:15:00,34.7,0.0,29.92,SW,222,0.0,0.0,0,0.00,,---,0.00,VWS V14.00,2013-01-07 03:15:00,
2013-01-06 22:20:00,34.8,0.0,29.92,SSW,205,0.0,8.6,0,0.00,,---,0.00,VWS V14.00,2013-01-07 03:20:00,
2013-01-06 22:25:00,34.9,0.0,29.92,SSW,201,5.2,8.2,0,0.00,,---,0.00,VWS V14.00,2013-01-07 03:25:00,
2013-01-06 22:30:00,34.7,0.0,29.92,SW,235,7.1,8.5,0,0.00,,---,0.00,VWS V14.00,2013-01-07 03:30:00,
2013-01-06 22:35:00,34.6,0.0,29.92,SW,235,4.7,8.2,0,0.00,,---,0.00,VWS V14.00,2013-01-07 03:35:00,
2013-01-06 22:40:00,34.7,0.0,29.92,South,173,0.0,6.9,0,0.00,,---,0.00,VWS V14.00,2013-01-07 03:40:00,
2013-01-06 22:45:00,34.7,0.0,29.92,SW,226,0.0,8.6,0,0.00,,---,0.00,VWS V14.00,2013-01-07 03:45:00,
2013-01-06 22:50:00,34.5,0.0,29.92,SW,236,2.9,7.8,0,0.00,,---,0.00,VWS V14.00,2013-01-07 03:50:00,
2013-01-06 22:55:00,34.4,0.0,29.92,SSW,193,0.0,7.5,0,0.00,,---,0.00,VWS V14.00,2013-01-07 03:55:00,
2013-01-06 23:00:00,34.5,0.0,29.92,SSW,193,0.0,0.0,0,0.00,,---,0.00,VWS V14.00,2013-01-07 04:00:00,
2013-01-06 23:05:00,34.7,0.0,29.92,SSW,193,0.0,0.0,0,0.00,,---,0.00,VWS V14.00,2013-01-07 04:05:00,
2013-01-06 23:10:00,34.7,0.0,29.92,SSW,193,0.0,0.0,0,0.00,,---,0.00,VWS V14.00,2013-01-07 04:10:00,
2013-01-06 23:15:00,34.8,0.0,29.92,SW,222,0.0,8.1,0,0.00,,---,0.00,VWS V14.00,2013-01-07 04:15:00,
2013-01-06 23:20:00,34.9,0.0,29.92,SSW,204,4.7,7.5,0,0.00,,---,0.00,VWS V14.00,2013-01-07 04:20:00,
2013-01-06 23:25:00,34.9,0.0,29.92,SW,215,8.9,9.2,0,0.00,,---,0.00,VWS V14.00,2013-01-07 04:25:00,
2013-01-06 23:30:00,34.8,0.0,29.92,SW,226,5.0,8.9,0,0.00,,---,0.00,VWS V14.00,2013-01-07 04:30:00,
2013-01-06 23:35:00,34.7,0.0,29.92,SW,235,0.0,8.3,0,0.00,,---,0.00,VWS V14.00,2013-01-07 04:35:00,
2013-01-06 23:40:00,34.6,0.0,29.92,SSW,212,0.0,7.0,0,0.00,,---,0.00,VWS V14.00,2013-01-07 04:40:00,
2013-01-06 23:45:00,34.6,0.0,29.92,SSW,212,0.0,0.0,0,0.00,,---,0.00,VWS V14.00,2013-01-07 04:45:00,
2013-01-06 23:50:00,34.7,0.0,29.92,SW,228,0.0,0.0,0,0.00,,---,0.00,VWS V14.00,2013-01-07 04:50:00,